loading
|

STARLINK-32075, 60345

Orbit data source: Space-Track

STARLINK-32075, 60345 is a payload satellite owned by SpaceX/Seattle (US) in LEO that was launched on Fri, 02 Aug 2024 UTC via an FALCON 9 launch vehicle from the Air Force Eastern Test Range (AFETR). Payloads include a variety of satellites, spacecraft, and rockets equipped with specific instruments for various scientific and technological missions. These include communications satellites like Starlink; space stations such as the ISS; scientific satellites like the Hubble; Earth observation satellites from companies like Planet Labs, Umbra, and HawkEye 360; GPS; miniature CubeSats for education and research; and military/defense satellites.

Loading next visibility...
Loading greatness...
STARLINK-32075 details
Identifier
60345, 2024-136S
Orbit
LEO
Last TLE update7 hours ago
Origin
Flag of USSpaceX/Seattle (US)
ManufacturerSpaceX/Seattle
Mission statusOperational
MissionUnknown
Bus & MotorSTARLINK V2M, Unknown motor
Mass750 kg wet, ~700 kg dry
Launch date (UTC)
2024-08-02 (2 months ago)
Launch vehicle
FALCON 9
Launch site
Air Force Eastern Test Range (AFETR)
Object type
Payload
Rocket body
Debris
Radar Cross SectionLarge (>1 m²)

Expand to show TLE details & history

TLE from 7 hours ago
0 STARLINK-32075
1 60345U 24136S   24261.58527560 -.00001072  00000-0 -16827-4 0  9997
2 60345  53.1627  55.4283 0000467  36.1550 323.9487 15.39623465  7274
Epoch: 2024-09-17T14:02Z
Definitive object data (Epoch: 2024-09-17T14:02:47.811Z)
Latitude0.00001°
Longitude-152.26873°
Altitude447.868 km
Speed7.645 km/s
True Right ascension03h 41m 42s
True Declination0° 00' 00"
Sunlit
Object was in full shadow at TLE epoch
Predictive object data (real-time)
Latitude0.25595°
Longitude26.1643°
Altitude448.347 km
Speed7.644 km/s
Apparent Right ascension18h 21m 18s
Apparent Declination-51° 22' 56"
Sunlit
Object is in daylight
Predictive observer data (real-time)
Local Sidereal Time13:51:58
Azimuth142.612° SSE
Elevation-18.475°
Doppler factor1
Orbital elements
Apogee447.798 km
Perigee447.16 km
Semi-major axis6,825.616 km
Eccentricity0.0000467
Inclination53.1627°
RAAN55.4283°
Arg. of periapsis36.155°
True anomaly323.94555°
Mean anomaly323.9487°
Eccentric anomaly323.94713°
Mean motion3.84884 °/min
BSTAR-0.000016827
Period93.53 mins
No data available

STARLINK-32075 Visibility forecast

Observer location: 39.9160978°, -105.1181434

STARLINK-32075 is not visible in the next 10 days
Span
Click to sort rows by Start time (UTC) header in descending order
Start Az.
Max El. time (UTC)
Max El. Az.
Max El.
End time (UTC)
End Az.